Previsão horária em Jurkowko

Hoje, 23 Junho, Quarta-feira

Tempo Temperatura Precipitação Vento Pressão Humidade
00:00 +19°C° 0.1 mm 2 m/s 744 mmHg 94%
01:00 +19°C° 0 mm 2 m/s 744 mmHg 95%
02:00 +18°C° 0 mm 2 m/s 744 mmHg 96%
03:00 +18°C° 0 mm 2 m/s 745 mmHg 96%
04:00 +18°C° 0 mm 2 m/s 745 mmHg 97%
05:00 +19°C° 0 mm 2 m/s 745 mmHg 93%
06:00 +20°C° 0 mm 2 m/s 746 mmHg 88%
07:00 +21°C° 0 mm 2 m/s 746 mmHg 84%
08:00 +23°C° 0.1 mm 2 m/s 747 mmHg 79%
09:00 +25°C° 0.1 mm 2 m/s 747 mmHg 74%
10:00 +26°C° 0.1 mm 2 m/s 748 mmHg 68%
11:00 +27°C° 0 mm 2 m/s 748 mmHg 66%
12:00 +27°C° 0 mm 2 m/s 748 mmHg 64%
13:00 +28°C° 0 mm 2 m/s 748 mmHg 62%
14:00 +28°C° 0.3 mm 2 m/s 748 mmHg 65%
15:00 +27°C° 0.3 mm 3 m/s 748 mmHg 68%
16:00 +27°C° 0.3 mm 3 m/s 748 mmHg 71%
17:00 +25°C° 0.7 mm 3 m/s 748 mmHg 77%
18:00 +24°C° 0.7 mm 3 m/s 748 mmHg 83%
19:00 +21°C° 0.7 mm 3 m/s 748 mmHg 90%
20:00 +20°C° 0.8 mm 3 m/s 748 mmHg 92%
21:00 +18°C° 0.8 mm 3 m/s 748 mmHg 93%
22:00 +17°C° 0.8 mm 2 m/s 749 mmHg 95%
23:00 +17°C° 0.6 mm 2 m/s 749 mmHg 95%

Amanhã, 24 Junho, Quinta-feira

Tempo Temperatura Precipitação Vento Pressão Humidade
00:00 +16°C° 0.6 mm 2 m/s 748 mmHg 95%
01:00 +16°C° 0.6 mm 2 m/s 748 mmHg 94%
02:00 +16°C° 0.2 mm 2 m/s 748 mmHg 94%
03:00 +16°C° 0.2 mm 2 m/s 748 mmHg 94%
04:00 +15°C° 0.2 mm 2 m/s 748 mmHg 94%
05:00 +17°C° 0.1 mm 2 m/s 748 mmHg 90%
06:00 +18°C° 0.1 mm 2 m/s 748 mmHg 85%
07:00 +20°C° 0.1 mm 3 m/s 748 mmHg 81%
08:00 +23°C° 0 mm 2 m/s 748 mmHg 77%
09:00 +24°C° 0 mm 2 m/s 748 mmHg 72%
10:00 +26°C° 0 mm 1 m/s 748 mmHg 68%
11:00 +27°C° 0 mm 1 m/s 747 mmHg 66%
12:00 +28°C° 0 mm 1 m/s 747 mmHg 64%
13:00 +29°C° 0 mm 1 m/s 747 mmHg 62%
14:00 +29°C° 0.5 mm 1 m/s 746 mmHg 64%
15:00 +29°C° 0.5 mm 1 m/s 746 mmHg 66%
16:00 +29°C° 0.5 mm 1 m/s 745 mmHg 68%
17:00 +27°C° 1.2 mm 2 m/s 745 mmHg 75%
18:00 +25°C° 1.2 mm 2 m/s 745 mmHg 82%
19:00 +24°C° 1.2 mm 3 m/s 744 mmHg 89%
20:00 +21°C° 1.3 mm 2 m/s 744 mmHg 91%
21:00 +20°C° 1.3 mm 2 m/s 745 mmHg 93%
22:00 +20°C° 1.3 mm 1 m/s 745 mmHg 95%
23:00 +20°C° 0 mm 1 m/s 744 mmHg 95%

Depois de amanhã, 25 Junho, Sexta-feira

Tempo Temperatura Precipitação Vento Pressão Humidade
00:00 +18°C° 0 mm 2 m/s 744 mmHg 94%
01:00 +18°C° 0 mm 2 m/s 744 mmHg 94%
02:00 +18°C° 0 mm 2 m/s 744 mmHg 94%
03:00 +18°C° 0 mm 2 m/s 744 mmHg 95%
04:00 +18°C° 0 mm 2 m/s 744 mmHg 95%
05:00 +20°C° 0 mm 1 m/s 744 mmHg 92%
06:00 +21°C° 0 mm 1 m/s 744 mmHg 89%
07:00 +22°C° 0 mm 1 m/s 744 mmHg 86%
08:00 +23°C° 0 mm 1 m/s 744 mmHg 81%
09:00 +25°C° 0 mm 1 m/s 744 mmHg 77%
10:00 +26°C° 0 mm 1 m/s 744 mmHg 73%
11:00 +27°C° 0 mm 1 m/s 744 mmHg 71%
12:00 +27°C° 0 mm 1 m/s 744 mmHg 69%
13:00 +28°C° 0 mm 1 m/s 744 mmHg 67%
14:00 +27°C° 0.8 mm 2 m/s 744 mmHg 70%
15:00 +27°C° 0.8 mm 2 m/s 743 mmHg 74%
16:00 +27°C° 0.8 mm 2 m/s 743 mmHg 77%
17:00 +25°C° 0.7 mm 2 m/s 743 mmHg 83%
18:00 +22°C° 0.7 mm 3 m/s 743 mmHg 88%
19:00 +21°C° 0.7 mm 3 m/s 743 mmHg 93%
20:00 +20°C° 0.3 mm 3 m/s 743 mmHg 94%
21:00 +19°C° 0.3 mm 3 m/s 743 mmHg 95%
22:00 +18°C° 0.3 mm 2 m/s 744 mmHg 96%
23:00 +17°C° 0 mm 2 m/s 744 mmHg 96%

26 Junho, Sábado

Tempo Temperatura Precipitação Vento Pressão Humidade
00:00 +17°C° 0 mm 2 m/s 744 mmHg 96%
01:00 +17°C° 0 mm 2 m/s 744 mmHg 96%
02:00 +17°C° 0 mm 2 m/s 744 mmHg 96%
03:00 +16°C° 0 mm 2 m/s 744 mmHg 97%
04:00 +16°C° 0 mm 2 m/s 744 mmHg 97%
05:00 +17°C° 0 mm 3 m/s 744 mmHg 96%
06:00 +17°C° 0 mm 3 m/s 744 mmHg 94%
07:00 +17°C° 0 mm 3 m/s 745 mmHg 93%
08:00 +18°C° 0 mm 4 m/s 745 mmHg 90%
09:00 +19°C° 0 mm 4 m/s 745 mmHg 86%
10:00 +19°C° 0 mm 4 m/s 745 mmHg 82%
11:00 +20°C° 0.1 mm 4 m/s 745 mmHg 81%
12:00 +20°C° 0.1 mm 4 m/s 746 mmHg 79%
13:00 +20°C° 0.1 mm 4 m/s 746 mmHg 77%
14:00 +20°C° 0 mm 4 m/s 746 mmHg 76%
15:00 +20°C° 0 mm 4 m/s 746 mmHg 74%
16:00 +21°C° 0 mm 4 m/s 746 mmHg 72%
17:00 +20°C° 0 mm 4 m/s 746 mmHg 76%
18:00 +19°C° 0 mm 3 m/s 746 mmHg 80%
19:00 +19°C° 0 mm 3 m/s 746 mmHg 84%
20:00 +17°C° 0 mm 3 m/s 746 mmHg 88%
21:00 +16°C° 0 mm 3 m/s 746 mmHg 93%
22:00 +15°C° 0 mm 2 m/s 747 mmHg 97%
23:00 +15°C° 0 mm 2 m/s 747 mmHg 97%

27 Junho, Domingo

Tempo Temperatura Precipitação Vento Pressão Humidade
00:00 +14°C° 0 mm 2 m/s 747 mmHg 98%
01:00 +14°C° 0 mm 2 m/s 747 mmHg 99%
02:00 +14°C° 0 mm 2 m/s 747 mmHg 98%
03:00 +14°C° 0 mm 2 m/s 747 mmHg 98%
04:00 +14°C° 0 mm 2 m/s 747 mmHg 98%
05:00 +14°C° 0 mm 3 m/s 747 mmHg 91%
06:00 +17°C° 0 mm 3 m/s 747 mmHg 85%
07:00 +19°C° 0 mm 4 m/s 747 mmHg 78%
08:00 +20°C° 0 mm 4 m/s 747 mmHg 73%
09:00 +21°C° 0 mm 4 m/s 747 mmHg 68%
10:00 +22°C° 0 mm 5 m/s 747 mmHg 62%
11:00 +23°C° 0.1 mm 4 m/s 747 mmHg 61%
12:00 +23°C° 0.1 mm 4 m/s 747 mmHg 59%
13:00 +23°C° 0.1 mm 4 m/s 747 mmHg 58%
14:00 +23°C° 0 mm 4 m/s 747 mmHg 56%
15:00 +25°C° 0 mm 3 m/s 747 mmHg 55%
16:00 +25°C° 0 mm 3 m/s 747 mmHg 54%
17:00 +22°C° 0 mm 3 m/s 747 mmHg 62%
18:00 +21°C° 0 mm 2 m/s 747 mmHg 70%
19:00 +20°C° 0 mm 2 m/s 747 mmHg 79%
20:00 +18°C° 0 mm 2 m/s 747 mmHg 82%
21:00 +18°C° 0 mm 1 m/s 747 mmHg 86%
22:00 +16°C° 0 mm 1 m/s 747 mmHg 90%
23:00 +16°C° 0 mm 1 m/s 747 mmHg 90%

28 Junho, Segunda-feira

Tempo Temperatura Precipitação Vento Pressão Humidade
00:00 +15°C° 0 mm 1 m/s 748 mmHg 90%
01:00 +15°C° 0 mm 1 m/s 748 mmHg 90%
02:00 +15°C° 0 mm 1 m/s 748 mmHg 91%
03:00 +15°C° 0 mm 2 m/s 747 mmHg 91%
04:00 +15°C° 0 mm 2 m/s 747 mmHg 92%
05:00 +17°C° 0 mm 2 m/s 747 mmHg 85%
06:00 +19°C° 0 mm 2 m/s 747 mmHg 78%
07:00 +20°C° 0 mm 3 m/s 747 mmHg 71%
08:00 +22°C° 0 mm 3 m/s 747 mmHg 66%
09:00 +24°C° 0 mm 3 m/s 747 mmHg 61%
10:00 +25°C° 0 mm 3 m/s 748 mmHg 56%
11:00 +25°C° 0.1 mm 3 m/s 747 mmHg 55%
12:00 +26°C° 0.1 mm 3 m/s 747 mmHg 54%
13:00 +26°C° 0.1 mm 4 m/s 747 mmHg 53%
14:00 +26°C° 0.2 mm 3 m/s 747 mmHg 57%
15:00 +25°C° 0.2 mm 3 m/s 747 mmHg 61%
16:00 +25°C° 0.2 mm 3 m/s 747 mmHg 65%
17:00 +23°C° 0.4 mm 2 m/s 747 mmHg 72%
18:00 +21°C° 0.4 mm 2 m/s 747 mmHg 78%
19:00 +21°C° 0.4 mm 1 m/s 747 mmHg 84%
20:00 +20°C° 0 mm 1 m/s 747 mmHg 86%
21:00 +19°C° 0 mm 1 m/s 747 mmHg 88%
22:00 +18°C° 0 mm 1 m/s 747 mmHg 90%
23:00 +16°C° 0 mm 1 m/s 747 mmHg 91%
Mostrar mais

Necessitamos do seu Consentimento

A Meteoprog e os seus Fornecedores de Serviços podem armazenar e aceder a dados pessoais como cookies, identificadores do dispositivo ou outras tecnologias semelhantes existentes no seu dispositivo e processar estes dados para personalizar conteúdos e anúncios, assim como funcionalidades nas redes sociais e análise de tráfego.

  • Armazenar e/ou aceder a informações no seu dispositivo

    Os cookies, identificadores do dispositivo ou outras informações podem ser armazenados ou acedidos no seu dispositivo, para os fins acima indicados.

  • Anúncios e conteúdos personalizados, medição de anúncios e conteúdos, dados sobre o público-alvo e desenvolvimento de produtos

    Os anúncios e os conteúdos podem ser personalizados com base num perfil. Podem ser adicionados dados adicionais para uma maior personalização dos anúncios e dos conteúdos. A eficácia dos anúncios e dos conteúdos pode ser medida. Podem ser obtidas informações sobre o público que visualizou os anúncios e os conteúdos. Estes dados podem ser usados para desenvolver ou melhorar sistemas, softwares ou a experiência do utilizador.

Ao clicar em "Eu concordo”, permitirá o uso de cookies, identificadores do dispositivo e web beacons mencionados ou outras tecnologias semelhantes. As configurações do navegador do seu dispositivo podem ser alteradas.

Para certos fins, podem ser invocados interesses legítimos ao invés de consentimento. Pode ler mais informação sobre este assunto na nossa Política de Privacidade e Cookies.